Location: ??????
(42.0089°N, 44.3281°E)
Time: 14:47:44
(UTC+00:00)

CZ-3 Stage 3 - Pass Details

Date: 24 October 2021
Orbit: 510 x 34672 km, 30.5° (Epoch: 06 December)

Event Time Altitude Azimuth Distance (km) Brightness Sun altitude
Rises 15:53:17 0° 270° (W) 12,291 10.3 -20.3°
Reaches altitude 10° 16:07:39 10° 265° (W) 7,053 8.5 -23.0°
Maximum altitude 16:20:16 30° 210° (SSW) 2,052 4.8 -25.3°
Enters shadow 16:22:32 22° 170° (S) 1,856 4.3 -25.7°
